Location: Lalanga
(4.5882°N, 32.9072°E)
Time: 01:27:59
(UTC+00:00)

SL-4 R/B - Pass Details

Date: 24 January 2020
Orbit: 428 x 666 km, 51.6° (Epoch: 19 February)

Event Time Altitude Azimuth Distance (km) Brightness Sun altitude
Rises 17:57:11 0° 224° (SW) 2,994 6.7 -29.0°
Reaches altitude 10° 17:59:35 10° 229° (SW) 2,078 5.7 -29.6°
Enters shadow 18:03:10 43° 260° (W) 923 3.4 -30.4°
